Regional Weather Roundup
Issued by NWS

Home | Current Version | Previous Version | Text Only | Print | Product List | Glossary On
Versions: 1 2 3 4 5 6 7 8 9 10 11 12 13 14 15 16 17 18 19 20 21 22 23 24 25 26 27 28 29 30 31 32 33 34 35 36 37 38 39 40 41 42 43 44 45 46 47 48
000
ASUS44 KBMX 220010
RWRAL

ALABAMA REGIONAL WEATHER ROUNDUP
NATIONAL WEATHER SERVICE BIRMINGHAM AL
600 PM CST FRI NOV 21 2014

NOTE: "FAIR" INDICATES FEW OR NO CLOUDS BELOW 12,000 FEET
WITH NO SIGNIFICANT WEATHER AND/OR OBSTRUCTIONS TO VISIBILITY.

THE REMARK "TC" DENOTES TEMPERATURE IN DEGREES CELSIUS.

ALZ001>011-014-016>018-020-220100-
NORTH ALABAMA

CITY           SKY/WX    TMP DP  RH WIND       PRES   REMARKS
MUSCLE SHOALS  PTCLDY    51  37  58 E6        30.34S
6HR MIN TEMP:  51; 6HR MAX TEMP:  60;

HUNTSVILLE     PTCLDY    52  37  56 E6        30.35R
6HR MIN TEMP:  52; 6HR MAX TEMP:  62;

DECATUR        CLEAR     51  38  60 E5        30.36R
6HR MIN TEMP:  51; 6HR MAX TEMP:  61;

HALEYVILLE     FAIR      51  41  69 CALM      30.36R
6HR MIN TEMP:  49; 6HR MAX TEMP:  62;

GADSDEN        CLEAR     48  36  61 CALM      30.37R
6HR MIN TEMP:  48; 6HR MAX TEMP:  61;

$$

ALZ012-013-022-023-030>036-040>044-220100-
WEST CENTRAL ALABAMA

CITY           SKY/WX    TMP DP  RH WIND       PRES   REMARKS
TUSCALOOSA     CLEAR     56  46  69 N3        30.33R
6HR MIN TEMP:  55; 6HR MAX TEMP:  69;

$$

ALZ015-024>027-033>036-040>044-220100-
CENTRAL ALABAMA

CITY           SKY/WX    TMP DP  RH WIND       PRES   REMARKS
BIRMINGHAM     CLEAR     57  39  51 E5        30.36R
6HR MIN TEMP:  57; 6HR MAX TEMP:  63;

MONTGOMERY     CLEAR     59  40  49 CALM      30.34R
6HR MIN TEMP:  57; 6HR MAX TEMP:  70;

SHELBY CO ARPT CLEAR     53  45  74 CALM      30.35R
6HR MIN TEMP:  53; 6HR MAX TEMP:  67;

MAXWELL AFB    CLEAR     56  43  60 N2        30.33R
6HR MIN TEMP:  56; 6HR MAX TEMP:  69;

GREENVILLE     FAIR      56  43  61 CALM      30.32R
6HR MIN TEMP:  56; 6HR MAX TEMP:  71;

$$

ALZ019-021-028-029-037-038-045>048-220100-
EAST CENTRAL ALABAMA

CITY           SKY/WX    TMP DP  RH WIND       PRES   REMARKS
ANNISTON       CLEAR     50  40  68 CALM      30.36R
6HR MIN TEMP:  49; 6HR MAX TEMP:  65;

ALEXANDER CITY CLEAR     54  45  70 CALM      30.35R
6HR MIN TEMP:  54; 6HR MAX TEMP:  69;

AUBURN         CLEAR     52  37  58 NE6       30.37R
6HR MIN TEMP:  52; 6HR MAX TEMP:  64;

$$

ALZ051>064-220100-
SOUTHWEST ALABAMA

CITY           SKY/WX    TMP DP  RH WIND       PRES   REMARKS
MOBILE         PTCLDY    57  46  66 SE3       30.30R
6HR MIN TEMP:  55; 6HR MAX TEMP:  69;

BROOKLEY FIELD CLEAR     52  48  86 CALM      30.32R
6HR MIN TEMP:  52; 6HR MAX TEMP:  70;

EVERGREEN      CLEAR     53  46  77 CALM      30.32R
6HR MIN TEMP:  53; 6HR MAX TEMP:  71;

$$

ALZ049-050-065>069-220100-
SOUTHEAST ALABAMA

CITY           SKY/WX    TMP DP  RH WIND       PRES   REMARKS
DOTHAN         CLEAR     56  38  50 NE5       30.35R
6HR MIN TEMP:  56; 6HR MAX TEMP:  69;

OZARK          CLEAR     57  41  54 NE6       30.32R
6HR MIN TEMP:  57; 6HR MAX TEMP:  69; 6HR PCP: TRACE;

TROY           CLEAR     53  43  68 CALM      30.34R
6HR MIN TEMP:  52; 6HR MAX TEMP:  69;

EUFAULA        FAIR      49  41  74 CALM      30.34R
6HR MIN TEMP:  49; 6HR MAX TEMP:  71;

$$



USA.gov is the U.S. government's official web portal to all federal, state and local government web resources and services.